Luqa, Malta

11:38 AM CET on January 16, 2018 (GMT +0100)
Luqa

Weather History for LMML - March, 2013

Change the Weather History Date:

Wednesday, March 13, 2013

  Actual Average Record
Temperature  
Mean Temperature 58 °F -  
Max Temperature 65 °F 64 °F 66 °F (2001)
Min Temperature 51 °F 51 °F 42 °F (2006)
Degree Days  
Heating Degree Days 7    
Growing Degree Days 8 (Base 50)    
Moisture  
Dew Point 51 °F    
Average Humidity 74    
Maximum Humidity 94    
Minimum Humidity 42    
Precipitation  
Precipitation 0.00 in 0.04 in - ()
Sea Level Pressure  
Sea Level Pressure 29.59 in    
Wind  
Wind Speed 7 mph ()    
Max Wind Speed 15 mph    
Max Gust Speed -    
Visibility 6.7 miles    
Events Rain    
Averages and records for this station are not official NWS values.
T = Trace of Precipitation, MM = Missing Value Source: Averaged Metar Reports

Daily Weather History Graph

Daily Weather History Graph

Search for Another Location

Airport or City:

Trip Planner

Search our weather history database for the weather conditions in past years. The results will help you decide how hot, cold, wet, or windy it might be!

Date:

Astronomy

Mar. 13, 2013 Rise Set
Actual Time 6:15 AM CET 6:07 PM CET
Civil Twilight 5:50 AM CET 6:33 PM CET
Nautical Twilight 5:20 AM CET 7:03 PM CET
Astronomical Twilight 4:50 AM CET 7:32 PM CET
Moon 6:50 AM CET (3/13) 8:01 PM CET (3/13)
Length of Visible Light 12h 43m
Length of Day
11h 52m
Waxing Crescent, 3% of the Moon is Illuminated
Mar 13
Waxing Crescent
Mar 19
First Quarter
Mar 27
Full
Apr 3
Last Quarter
Apr 10
New

Hourly Weather History & Observations

Time (CET) Temp. Dew Point Humidity Pressure Visibility Wind Dir Wind Speed Gust Speed Precip Events Conditions
12:15 AM 55.4 °F 51.8 °F 88% 29.74 in - North 9.2 mph - N/A   Clear
12:45 AM 53.6 °F 50.0 °F 88% 29.77 in - North 6.9 mph - N/A   Clear
1:00 AM 53 °F 50 °F 87% 29.77 in 12 mi North 6.9 mph - -  
1:15 AM 53.6 °F 50.0 °F 88% 29.74 in - NNE 5.8 mph - N/A   Clear
1:45 AM 53.6 °F 50.0 °F 88% 29.74 in - North 5.8 mph - N/A   Clear
2:15 AM 53.6 °F 50.0 °F 88% 29.74 in - North 2.3 mph - N/A   Clear
2:45 AM 51.8 °F 48.2 °F 88% 29.71 in - Variable 1.2 mph - N/A   Clear
3:15 AM 51.8 °F 48.2 °F 88% 29.71 in - SE 2.3 mph - N/A   Clear
3:45 AM 51.8 °F 48.2 °F 88% 29.71 in - SE 3.5 mph - N/A   Clear
4:00 AM 51 °F 48 °F 87% 29.71 in 6 mi SE 3.5 mph - -   Clear
4:15 AM 51.8 °F 48.2 °F 88% 29.68 in - SSE 4.6 mph - N/A   Clear
4:45 AM 51.8 °F 50.0 °F 94% 29.68 in - SSE 5.8 mph - N/A   Clear
5:15 AM 53.6 °F 50.0 °F 88% 29.71 in - South 5.8 mph - N/A   Clear
5:45 AM 53.6 °F 50.0 °F 88% 29.71 in 6.2 mi South 4.6 mph - N/A   Partly Cloudy
6:15 AM 55.4 °F 51.8 °F 88% 29.71 in 6.2 mi South 3.5 mph - N/A Rain Light Rain
6:45 AM 55.4 °F 51.8 °F 88% 29.71 in 6.2 mi Variable 2.3 mph - N/A Rain Light Rain
7:00 AM 55 °F 52 °F 84% 29.70 in 6 mi South 1.2 mph - -  
7:15 AM 55.4 °F 51.8 °F 88% 29.68 in 6.2 mi SE 6.9 mph - N/A Rain Light Rain
7:45 AM 55.4 °F 53.6 °F 94% 29.68 in 6.2 mi SSE 8.1 mph - N/A   Partly Cloudy
8:15 AM 57.2 °F 55.4 °F 94% 29.68 in - SSE 8.1 mph - N/A   Clear
8:45 AM 59.0 °F 55.4 °F 88% 29.68 in - South 9.2 mph - N/A   Clear
9:15 AM 60.8 °F 55.4 °F 82% 29.68 in - South 10.4 mph - N/A   Clear
9:45 AM 60.8 °F 55.4 °F 82% 29.65 in - South 9.2 mph - N/A   Clear
10:00 AM 62 °F 55 °F 72% 29.67 in 6 mi South 9.2 mph - -   Partly Cloudy
10:15 AM 62.6 °F 53.6 °F 72% 29.65 in - South 9.2 mph - N/A   Clear
10:45 AM 64.4 °F 53.6 °F 68% 29.62 in - South 8.1 mph - N/A   Clear
11:15 AM 64.4 °F 51.8 °F 64% 29.62 in - South 11.5 mph - N/A   Clear
11:45 AM 64.4 °F 51.8 °F 64% 29.59 in - South 12.7 mph - N/A   Clear
12:15 PM 62.6 °F 51.8 °F 68% 29.59 in - South 15.0 mph - N/A   Clear
12:45 PM 62.6 °F 53.6 °F 72% 29.56 in - South 13.8 mph - N/A   Clear
1:00 PM 63 °F 54 °F 65% 29.57 in 9 mi South 12.7 mph - -   Partly Cloudy
1:15 PM 62.6 °F 53.6 °F 72% 29.56 in - SSW 12.7 mph - N/A   Clear
1:45 PM 64.4 °F 51.8 °F 64% 29.53 in - SSW 13.8 mph - N/A   Clear
2:15 PM 62.6 °F 51.8 °F 68% 29.53 in - SW 12.7 mph - N/A   Clear
2:45 PM 62.6 °F 51.8 °F 68% 29.50 in - SW 11.5 mph - N/A   Clear
3:15 PM 62.6 °F 51.8 °F 68% 29.50 in - SW 10.4 mph - N/A   Clear
3:45 PM 62.6 °F 51.8 °F 68% 29.50 in - WSW 11.5 mph - N/A   Clear
4:00 PM 62 °F 52 °F 61% 29.49 in 7 mi SW 11.5 mph - -   Overcast
4:15 PM 62.6 °F 51.8 °F 68% 29.47 in - SW 11.5 mph - N/A   Clear
4:45 PM 62.6 °F 51.8 °F 68% 29.47 in - SW 11.5 mph - N/A   Clear
5:15 PM 60.8 °F 51.8 °F 72% 29.47 in - SW 10.4 mph - N/A   Clear
5:45 PM 60.8 °F 51.8 °F 72% 29.47 in - SW 8.1 mph - N/A   Clear
6:15 PM 60.8 °F 51.8 °F 72% 29.44 in - SW 8.1 mph - N/A   Clear
6:45 PM 62.6 °F 50.0 °F 63% 29.44 in - SW 8.1 mph - N/A   Clear
7:00 PM 63 °F 47 °F 45% 29.46 in 9 mi SW 9.2 mph - -   Overcast
7:15 PM 64.4 °F 44.6 °F 49% 29.47 in - SW 6.9 mph - N/A   Clear
7:45 PM 64.4 °F 44.6 °F 49% 29.50 in - West 12.7 mph - N/A   Clear
8:15 PM 64.4 °F 41.0 °F 42% 29.50 in - WNW 10.4 mph - N/A   Clear
8:45 PM 62.6 °F 44.6 °F 52% 29.50 in - West 6.9 mph - N/A   Clear
9:15 PM 62.6 °F 44.6 °F 52% 29.50 in 6.2 mi SW 6.9 mph - N/A Rain Light Rain
9:45 PM 60.8 °F 50.0 °F 68% 29.50 in 6.2 mi WSW 6.9 mph - N/A   Partly Cloudy
10:00 PM 60 °F 51 °F 63% 29.50 in 6 mi WSW 6.9 mph - - Rain Light Rain
10:15 PM 59.0 °F 51.8 °F 77% 29.47 in 6.2 mi WSW 8.1 mph - N/A   Partly Cloudy
10:45 PM 59.0 °F 51.8 °F 77% 29.47 in - SSW 4.6 mph - N/A   Clear
11:07 PM 60.8 °F 51.8 °F 72% 29.47 in 4.3 mi WSW 9.2 mph - N/A Rain Rain Showers
11:12 PM 60.8 °F 51.8 °F 72% 29.47 in 5.6 mi West 9.2 mph - N/A Rain Light Rain Showers
11:15 PM 60.8 °F 51.8 °F 72% 29.47 in 6.2 mi West 9.2 mph - N/A   Partly Cloudy
11:45 PM 59.0 °F 51.8 °F 77% 29.44 in - WSW 9.2 mph - N/A   Clear